[ hide orbit diagram ]
For accurate long-term ephemerides, please instead use our Horizons system.This orbit viewer was implemented using two-body methods, and hence should not be used for determining accurate long-term trajectories (over several years or decades) or planetary encounter circumstances.
Orbital Elements at Epoch 2459000.5 (2020-May-31.0) TDB
Reference: JPL 79 (heliocentric ecliptic J2000)
Element | Value | Uncertainty (1-sigma) | Units |
e | .3467923702512933 | 3.4735e-08 | |
a | 2.631445925979921 | 1.0089e-08 | au |
q | 1.718880556121235 | 9.1999e-08 | au |
i | 24.47377875904087 | 3.9727e-06 | deg |
node | 76.81450180909884 | 1.0181e-05 | deg |
peri | 284.02965472837 | 1.1834e-05 | deg |
M | 182.5899793139023 | 1.0096e-05 | deg |
tp | 2459768.861768943127 (2022-Jul-08.36176894) | 4.651e-05 | TDB |
period | 1559.157908610748 4.27 | 8.967e-06 2.455e-08 | d yr |
n | .2308938677806983 | 1.3279e-09 | deg/d |
Q | 3.544011295838607 | 1.3588e-08 | au |
|
| | Orbit Determination Parameters
Additional Information
|
[ show covariance matrix ]
Physical Parameter Table
Parameter |
Symbol |
Value |
Units |
Sigma |
Reference |
Notes |
absolute magnitude |
H |
8.8 |
|
n/a |
MPO502154 |
IRAS observations used: 20 |
diameter |
diameter |
100.254 |
km |
0.937 |
urn:nasa:pds:neowise_diameters_albedos::2.0[mainbelt] (http://adsabs.harvard.edu/abs/2012ApJ...759L...8M) |
|
rotation period |
rot_per |
13.66 |
h |
n/a |
LCDB (Rev. 2020-October); Warner et al., 2009 |
Published Reference List: [Schober, H.J. (1982) Astron. Astrophys. Suppl. Ser. 48, 57-62.] [Warner, B.D. (2009) Minor Planet Bull. 36, 7-13.] [Behrend, R. (2016) Observatoire de Geneve web site, http://obswww.unige.ch/~behrend/page_cou.html] [Hanus, J.; Durech, J.; Oszkiewicz, D.A.; Behrend, R.; et al. (2016) Astron. Astrophys. 586, A108.] |
geometric albedo |
albedo |
0.029 |
|
0.003 |
urn:nasa:pds:neowise_diameters_albedos::2.0[mainbelt] (http://adsabs.harvard.edu/abs/2011ApJ...741...68M) |
|
B-V |
BV |
0.684 |
|
0.017 |
EAR-A-5-DDR-UBV-MEAN-VALUES-V1.2 |
#obs=5; phase (min.=5.91, mean=15.99, max.=26.59) deg. |
U-B |
UB |
0.326 |
|
0.021 |
EAR-A-5-DDR-UBV-MEAN-VALUES-V1.2 |
#obs=4; phase (min.=5.91, mean=17.13, max.=26.59) deg. |
Tholen spectral type |
spec_T |
CX |
|
n/a |
EAR-A-5-DDR-TAXONOMY-V4.0 |
used 2 color indices |
SMASSII spectral type |
spec_B |
X |
|
n/a |
EAR-A-5-DDR-TAXONOMY-V4.0 |
based on a high-resolution spectrum by Xu et al. (1995) or Bus and Binzel (2002) |
|
164 Eva (A876 NA) Discovered 1876-Jul-12 by Henry, Paul at Paris |
In their cooperative program it will probably never be known which of the Henry brothers discovered which planet. With strict impartiality, these discoveries were announced as having been made alternatively by Prosper and by Paul. |
Note: "planet" implies "minor planet" |
Reference: DISCOVERY.DB | Last Updated: 2003-08-29 |
|
[ show close-approach data ]
|